Date,TemperatureHighF,TemperatureAvgF,TemperatureLowF,DewpointHighF,DewpointAvgF,DewpointLowF,HumidityHigh,HumidityAvg,HumidityLow,PressureMaxIn,PressureMinIn,WindSpeedMaxMPH,WindSpeedAvgMPH,GustSpeedMaxMPH,PrecipitationSumIn
2013-5-1,73.6,56.7,36.4,37.3,31.9,26.4,72,42,21,30.45,30.34,11,1,11,0.00
2013-5-2,78.5,55.3,41.0,44.7,35.7,25.3,76,51,22,30.50,30.33,16,2,16,0.00
2013-5-3,65.9,52.8,36.8,46.3,39.2,32.8,88,63,39,30.53,30.36,12,1,12,0.00
2013-5-4,71.0,52.7,39.0,47.9,37.9,24.0,97,63,19,30.37,30.24,15,1,15,0.00
2013-5-5,69.2,50.1,32.1,41.1,35.0,30.3,94,62,25,30.33,30.20,12,1,12,0.00
2013-5-6,72.4,54.0,34.2,45.7,36.9,27.1,96,60,20,30.26,30.10,10,1,10,0.00
2013-5-7,78.4,61.6,41.7,55.0,44.9,31.3,97,63,19,30.16,30.05,14,0,14,0.00
2013-5-8,72.4,61.8,51.0,59.7,55.5,50.2,97,82,54,30.19,30.04,19,2,19,0.09
2013-5-9,63.9,58.7,54.3,58.7,56.3,53.8,100,92,75,30.04,29.87,8,1,8,0.48
2013-5-10,76.7,64.1,54.3,59.4,55.5,50.8,100,77,43,29.94,29.86,8,0,8,0.01
2013-5-11,66.2,60.7,56.8,62.6,58.1,53.8,98,91,80,29.87,29.65,11,1,11,0.46
2013-5-12,67.2,56.4,43.8,58.9,47.9,27.3,100,76,45,29.76,29.55,8,0,8,0.00
2013-5-13,54.3,44.8,39.2,34.7,30.0,26.4,72,57,36,30.04,29.76,9,1,9,0.00
2013-5-14,58.5,46.3,34.9,36.0,30.2,23.4,86,57,29,30.06,29.96,9,0,9,0.00
2013-5-15,64.4,46.8,30.9,48.2,34.6,27.1,92,67,30,30.04,29.70,11,1,11,0.15
2013-5-16,76.2,61.5,43.5,57.7,43.3,36.1,100,58,27,29.82,29.59,14,1,14,0.00
2013-5-17,65.4,53.7,44.7,44.2,39.9,33.4,80,61,31,30.21,29.82,8,0,8,0.00
2013-5-18,71.9,54.9,40.1,46.7,41.1,30.5,94,64,23,30.30,30.20,11,0,11,0.00
2013-5-19,66.2,53.4,43.0,52.3,47.9,41.7,98,83,53,30.34,30.19,10,1,10,0.27
2013-5-20,69.8,60.8,52.5,64.1,58.1,51.8,100,91,76,30.19,29.93,6,-13,6,0.11
2013-5-21,71.0,57.5,49.4,62.8,54.8,47.8,99,91,71,30.09,29.89,9,1,9,0.53
2013-5-22,58.8,53.2,49.3,56.0,52.0,48.6,100,96,88,29.99,29.88,14,0,14,0.84
2013-5-23,67.9,58.5,49.8,66.2,57.1,49.0,98,96,85,29.93,29.76,13,0,13,0.24
2013-5-24,67.7,58.7,45.8,64.7,56.0,44.4,99,91,71,29.85,29.62,7,0,7,0.42
2013-5-25,46.9,43.7,32.8,46.6,43.2,32.0,99,98,96,29.85,29.74,7,0,7,0.92
2013-5-26,52.5,43.4,33.3,43.9,38.3,32.5,98,83,59,30.07,29.71,12,1,12,0.33
2013-5-27,65.6,51.2,35.4,45.8,37.5,31.0,96,64,29,30.19,30.07,11,0,11,0.00
2013-5-28,70.4,54.7,37.5,45.6,39.0,31.2,94,60,29,30.26,30.16,10,0,10,0.00
2013-5-29,55.5,53.4,50.3,55.2,51.7,41.6,99,94,72,30.18,30.01,6,0,6,0.26
2013-5-30,81.6,67.7,52.5,68.7,61.0,52.2,100,82,50,30.08,30.00,9,0,9,0.07
2013-5-31,88.4,73.3,60.3,68.9,62.8,58.0,99,73,40,30.08,29.91,3,0,16,0.09